FW4072 Weather Reports


Display with metric or nautical units.
time (UTC)temp
F
wind
direction
speed
MPH
gust
MPH
rain 1hr
in
rain 24hr
in
rain mn
in
humidity
%
barometer
mb
20260831030450 61 0.0 0.0 0.00 0.00 0.00 75 1020.3
20260831025551 61 0.0 0.0 0.00 0.00 0.00 75 1020.3
20260831024643 61 0.0 0.0 0.00 0.00 0.00 75 1020.3
20260831023802 61 0.0 0.0 0.00 0.00 0.00 74 1020.3
20260831022842 62 0.0 0.0 0.00 0.00 0.00 73 1020.2
20260831021032 62 0.0 0.0 0.00 0.00 0.00 73 1020.3
20260831020131 62 0.0 0.0 0.00 0.00 0.00 72 1020.2
20260831015231 62 0.0 0.0 0.00 0.00 0.00 71 1020.3
20260831014329 62 0.0 0.0 0.00 0.00 0.00 69 1020.3
20260831013429 63 0.0 0.0 0.00 0.00 0.00 68 1020.2
20260831012529 63 0.0 0.0 0.00 0.00 0.00 67 1020.2
20260831011627 64 0.0 0.0 0.00 0.00 0.00 67 1020.3
20260831010727 64 0.0 0.0 0.00 0.00 0.00 66 1020.3
20260831005848 64 0.0 0.0 0.00 0.00 0.00 65 1020.2
20260831004020 64 0.0 0.0 0.00 0.00 0.00 65 1020.2
20260831003119 64 0.0 0.0 0.00 0.00 0.00 65 1020.3
20260831002219 64 0.0 0.0 0.00 0.00 0.00 64 1020.2
20260831001318 64 0.0 0.0 0.00 0.00 0.00 63 1020.2
20260831000418 64 0.0 0.0 0.00 0.00 0.00 63 1020.2
20260830235517 65 0.0 0.0 0.00 0.00 0.00 62 1020.4
20260830234616 65 0.0 0.0 0.00 0.00 0.00 61 1020.5
20260830233715 65 0.0 0.0 0.00 0.00 0.00 60 1020.3
20260830232835 65 0.0 0.0 0.00 0.00 0.00 59 1020.5
20260830231914 66 0.0 0.0 0.00 0.00 0.00 57 1020.3
20260830230108 66 0.0 0.0 0.00 0.00 0.00 56 1020.4
20260830225207 67 0.0 0.0 0.00 0.00 0.00 55 1020.2
20260830224306 67 0.0 0.0 0.00 0.00 0.00 54 1020.3
20260830223426 67 0.0 0.0 0.00 0.00 0.00 53 1020.2
20260830222505 68 0.0 0.0 0.00 0.00 0.00 52 1020.3
20260830221605 68 0.0 0.0 0.00 0.00 0.00 51 1020.3
20260830220704 69 0.0 0.0 0.00 0.00 0.00 49 1020.4
20260830215825 69 0.0 0.0 0.00 0.00 0.00 48 1020.3
20260830214923 70 0.0 0.0 0.00 0.00 0.00 45 1020.4
20260830213102 71 0.0 0.0 0.00 0.00 0.00 44 1020.1
20260830212158 71 0.0 0.0 0.00 0.00 0.00 43 1020.2
20260830211256 71 0.0 1.0 0.00 0.00 0.00 43 1020.3
20260830210356 72 0.0 0.0 0.00 0.00 0.00 41 1020.3
20260830205534 73 0.0 0.0 0.00 0.00 0.00 39 1020.4
20260830204613 73 0.0 0.0 0.00 0.00 0.00 38 1020.2
20260830203653 73 0.0 2.0 0.00 0.00 0.00 37 1020.2
20260830202752 74 0.0 1.0 0.00 0.00 0.00 37 1020.3
20260830201851 74 135 1.0 3.0 0.00 0.00 0.00 37 1020.2
20260830200052 74 0.0 2.0 0.00 0.00 0.00 36 1020.3
20260830195150 75 0.0 0.0 0.00 0.00 0.00 35 1020.3
20260830194305 75 0.0 0.0 0.00 0.00 0.00 33 1020.1
20260830193344 76 0.0 1.0 0.00 0.00 0.00 33 1020.1
20260830192503 76 158 1.0 2.0 0.00 0.00 0.00 33 1020.0
20260830191532 76 0.0 1.0 0.00 0.00 0.00 33 1020.0
20260830190631 77 0.0 2.0 0.00 0.00 0.00 33 1020.0
20260830185731 77 0.0 3.0 0.00 0.00 0.00 33 1020.0
20260830184830 77 0.0 2.0 0.00 0.00 0.00 33 1020.0
20260830183029 77 0.0 0.0 0.00 0.00 0.00 34 1020.1
20260830182129 77 0.0 0.0 0.00 0.00 0.00 33 1019.9
20260830181228 76 0.0 1.0 0.00 0.00 0.00 34 1019.9
20260830180327 76 0.0 2.0 0.00 0.00 0.00 34 1019.7
20260830175426 76 0.0 0.0 0.00 0.00 0.00 34 1019.6
20260830174527 77 0.0 0.0 0.00 0.00 0.00 32 1019.5
20260830173640 78 0.0 0.0 0.00 0.00 0.00 31 1019.3
20260830172719 78 0.0 0.0 0.00 0.00 0.00 30 1019.2
20260830171840 79 0.0 0.0 0.00 0.00 0.00 29 1019.0
20260830170018 80 0.0 0.0 0.00 0.00 0.00 28 1018.9
20260830165117 81 0.0 0.0 0.00 0.00 0.00 27 1018.9
20260830164216 81 0.0 1.0 0.00 0.00 0.00 27 1018.9
20260830163317 82 0.0 1.0 0.00 0.00 0.00 27 1018.8
20260830162417 82 0.0 0.0 0.00 0.00 0.00 28 1018.8
20260830161514 82 0.0 0.0 0.00 0.00 0.00 28 1018.8
20260830160614 82 135 1.0 4.0 0.00 0.00 0.00 28 1018.8
20260830155708 82 0.0 0.0 0.00 0.00 0.00 28 1018.7
20260830154807 83 0.0 0.0 0.00 0.00 0.00 26 1018.7
20260830153908 84 0.0 0.0 0.00 0.00 0.00 22 1018.8
20260830152106 85 0.0 1.0 0.00 0.00 0.00 21 1018.8
20260830151205 86 0.0 0.0 0.00 0.00 0.00 20 1018.8
20260830150304 87 0.0 0.0 0.00 0.00 0.00 19 1018.8
20260830145403 87 0.0 0.0 0.00 0.00 0.00 17 1018.8
20260830144523 88 0.0 0.0 0.00 0.00 0.00 16 1018.7
20260830143604 89 0.0 0.0 0.00 0.00 0.00 16 1018.9
20260830142702 89 0.0 2.0 0.00 0.00 0.00 15 1018.9
20260830141756 89 0.0 2.0 0.00 0.00 0.00 14 1018.8
20260830140856 91 0.0 1.0 0.00 0.00 0.00 13 1018.9
20260830135055 92 0.0 3.0 0.00 0.00 0.00 13 1019.0
20260830134154 92 0.0 0.0 0.00 0.00 0.00 15 1018.9
20260830133255 92 0.0 0.0 0.00 0.00 0.00 15 1019.0
20260830132353 91 0.0 0.0 0.00 0.00 0.00 15 1019.1
20260830131453 90 0.0 1.0 0.00 0.00 0.00 16 1019.0
20260830130551 89 113 1.0 4.0 0.00 0.00 0.00 16 1019.2
20260830125650 90 0.0 0.0 0.00 0.00 0.00 16 1019.2
20260830124750 90 0.0 1.0 0.00 0.00 0.00 16 1019.4
20260830123843 90 0.0 2.0 0.00 0.00 0.00 17 1019.4
20260830122042 90 0.0 1.0 0.00 0.00 0.00 16 1019.4
20260830121549 91 0.0 0.0 0.00 0.00 0.00 17 1019.5
20260830120644 91 2.0 4.0 0.00 0.00 0.00 12 1019.6
20260830115744 92 0.0 2.0 0.00 0.00 0.00 14 1019.5
20260830114902 92 0.0 2.0 0.00 0.00 0.00 16 1019.6
20260830113041 93 0.0 2.0 0.00 0.00 0.00 14 1019.6
20260830112332 94 0.0 3.0 0.00 0.00 0.00 12 1019.8
20260830111432 93 0.0 2.0 0.00 0.00 0.00 16 1019.9
20260830110530 92 0.0 2.0 0.00 0.00 0.00 19 1019.9
20260830105629 91 0.0 2.0 0.00 0.00 0.00 18 1020.1
20260830104748 90 0.0 1.0 0.00 0.00 0.00 19 1020.2
20260830103828 90 158 0.0 4.0 0.00 0.00 0.00 22 1020.2
20260830102027 90 0.0 2.0 0.00 0.00 0.00 24 1020.2
20260830101128 90 0.0 1.0 0.00 0.00 0.00 27 1020.2
20260830100225 91 0.0 2.0 0.00 0.00 0.00 28 1020.1
20260830095325 89 0.0 2.0 0.00 0.00 0.00 33 1020.4
20260830094444 86 0.0 0.0 0.00 0.00 0.00 36 1020.3
20260830093525 86 0.0 2.0 0.00 0.00 0.00 37 1020.3
20260830092623 83 0.0 0.0 0.00 0.00 0.00 41 1020.5
20260830091744 82 0.0 2.0 0.00 0.00 0.00 40 1020.6
20260830090822 82 0.0 2.0 0.00 0.00 0.00 39 1020.7
20260830085022 84 0.0 2.0 0.00 0.00 0.00 38 1020.7
20260830084120 83 0.0 2.0 0.00 0.00 0.00 40 1020.7
20260830083219 82 0.0 1.0 0.00 0.00 0.00 47 1020.6
20260830082319 80 0.0 2.0 0.00 0.00 0.00 50 1020.7
20260830081418 78 135 1.0 2.0 0.00 0.00 0.00 52 1020.5
20260830080541 78 0.0 1.0 0.00 0.00 0.00 53 1020.5
20260830075637 78 0.0 2.0 0.00 0.00 0.00 55 1020.5
20260830074716 77 0.0 3.0 0.00 0.00 0.00 56 1020.5
20260830073815 76 0.0 2.0 0.00 0.00 0.00 62 1020.4
20260830072916 73 1.0 2.0 0.00 0.00 0.00 67 1020.4
20260830071114 71 0.0 1.0 0.00 0.00 0.00 69 1020.3
20260830070213 71 0.0 1.0 0.00 0.00 0.00 73 1020.3
20260830065314 70 0.0 0.0 0.00 0.00 0.00 73 1020.2
20260830064412 69 0.0 0.0 0.00 0.00 0.00 76 1020.2
20260830063511 69 0.0 0.0 0.00 0.00 0.00 77 1020.3
20260830062610 68 0.0 1.0 0.00 0.00 0.00 78 1020.1
20260830061710 67 0.0 0.0 0.00 0.00 0.00 78 1020.2
20260830060809 67 0.0 2.0 0.00 0.00 0.00 79 1020.0
20260830055929 67 0.0 1.0 0.00 0.00 0.00 80 1020.0
20260830054137 67 0.0 2.0 0.00 0.00 0.00 81 1019.9
20260830053137 67 0.0 1.0 0.00 0.00 0.00 81 1019.9
20260830052236 66 0.0 0.0 0.00 0.00 0.00 82 1019.6
20260830051355 66 0.0 0.0 0.00 0.00 0.00 83 1019.5
20260830050434 66 0.0 0.0 0.00 0.00 0.00 85 1019.6
20260830045557 65 0.0 0.0 0.00 0.00 0.00 86 1019.6
20260830044633 65 0.0 0.0 0.00 0.00 0.00 86 1019.6
20260830043732 64 0.0 0.0 0.00 0.00 0.00 87 1019.6
20260830042832 63 0.0 0.0 0.00 0.00 0.00 88 1019.7
20260830041031 63 0.0 0.0 0.00 0.00 0.00 88 1019.9
20260830040130 62 0.0 0.0 0.00 0.00 0.00 88 1020.1
20260830035230 61 0.0 0.0 0.00 0.00 0.00 88 1020.1
20260830034329 60 0.0 0.0 0.00 0.00 0.00 88 1020.1
20260830033510 60 0.0 0.0 0.00 0.00 0.00 88 1019.9
20260830032527 60 0.0 0.0 0.00 0.00 0.00 87 1019.7
20260830031626 60 0.0 0.0 0.00 0.00 0.00 87 1019.6